Location: Sternwarte Stuttgart
(48.7670°N, 9.1830°E)
Time: 07:44:36
(UTC+02:00)

Cosmos 921 Rocket - Pass Details

Date: 24 January 2019
Orbit: 572 x 632 km, 75.8° (Epoch: 23 October)

Event Time Altitude Azimuth Distance (km) Brightness Sun altitude
Exits shadow 05:27:10 65° 107° (ESE) 636 3.2 -25.5°
Drops below altitude 10° 05:30:57 10° 153° (SSE) 1,875 5.8 -24.9°
Sets 05:33:08 0° 156° (SSE) 2,767 6.7 -24.5°
